Showing default

BUZZZER-1, 62609

Orbit data source: Space-Track

BUZZZER-1, 62609 is a payload satellite owned by Unseen Labs (FR) in SSO that was launched on Tue, 14 Jan 2025 UTC via an FALCON 9 launch vehicle from the Air Force Western Test Range (AFWTR). Payload-class satellites include a variety of spacecraft equipped with specific instruments for various scientific and technological missions. These include communications satellites like Starlink; space stations such as the ISS; scientific satellites like the Hubble; Earth observation satellites from companies like Planet Labs, Umbra, and HawkEye 360; GPS; miniature CubeSats for education and research; and military/defense satellites.

Loading next visibility...
Identifier
62609, 2025-009A
Orbit
SSO
Country
Flag of FRFR
Related business
Manufacturer
Unseen Labs
Mission
Operational Commercial Sigint
Bus & Motor
CUBESAT 6U, Unknown motor
Mass
~10 kg wet, ~10 kg dry
Launch date (UTC)
2025-01-14 (11 months ago)
Launch vehicle
FALCON 9
Launch site
Air Force Western Test Range (AFWTR)
Object type
Payload
Rocket body
Debris
Shape & HBR
Box + 2 Pan, 0.3 m
Radar Cross Section
0.080 m², Medium (>0.1 m² and < 1m²)

Expand to show TLE details & history
Last TLE update: 23 hours ago

TLE from 23 hours ago
0 BUZZZER-1
1 62609U 25009A   25353.16895332  .00002899  00000-0  13761-3 0  9993
2 62609  97.4112  69.6445 0006397 240.6234 119.4362 15.20028522 51334
Epoch: 2025-12-19T04:03Z
TLE epoch observation values (Epoch: 2025-12-19T04:03:17.566Z)
Latitude
-0.00012°
Longitude
-79.19265°
Altitude
511.012 km
Speed
7.607 km/s
True Right ascension
04h 38m 34s
True Declination
0° 00' 00"
Sunlit
Object was in full shadow at epoch
Visualization orbit readout
Latitude
Unknown
Longitude
Unknown
Altitude
Unknown
Speed
Unknown
Apparent Right ascension
Unknown
Apparent Declination
Unknown
Sunlit
N/A
Visualization observer readout
Local Sidereal Time
02:17:56
Azimuth
Unknown
Elevation
Unknown
Doppler factor
Unknown
Orbital elements
Apogee altitude
507.122 km
Perigee altitude
498.319 km
Semi-major axis
6,880.858 km
Eccentricity
0.00064
Inclination
97.4112°
RAAN
69.6445°
Arg. of periapsis
240.6234°
True anomaly
119.50002°
Mean anomaly
119.4362°
Eccentric anomaly
119.46811°
Mean motion
3.80259 °/min
Orbital period
94.67 mins
BSTAR
0.00013761
Loading maneuver chart data...
Computing Atmospheric mass density...
Loading historical data...
Loading historical data...
Loading historical data...
Loading historical data...
Loading historical data...
Loading historical data...
Loading historical data...

Documentation

Showing up to 5 results
|